Wind_Speed
8 6 6 8 8 6 6 6 6 6 8 8 8 9 12 17 22 29 31 33 32 32 31 29 28 26 25 18 14 13 8 10 5 4 6 12 16 19 26 31 36 36 40 39 41
6 6 6 7 7 7 7 5 4 4 5 6 8 10 12 12 13 18 24 30 32 34 33 35 32 31 29 25 18 13 11 14 11 7 4 4 10 15 20 27 34 36 38 39 39
8 7 5 6 7 8 6 5 7 8 8 8 8 9 10 10 11 13 17 20 27 33 36 36 37 34 33 30 25 20 16 16 17 11 7 2 7 13 13 26 30 35 37 39 39
10 9 8 8 8 9 10 11 12 12 12 13 13 13 14 15 14 12 14 17 20 25 35 38 38 39 37 35 29 23 20 18 16 12 11 6 7 6 11 21 26 32 36 37 38
12 13 14 15 15 15 15 16 17 16 16 17 17 18 19 18 19 19 20 19 19 21 25 37 40 40 41 39 34 29 26 22 22 18 14 9 3 3 12 21 23 30 33 35 38
15 16 18 19 21 22 22 22 23 24 24 24 24 24 25 26 24 24 24 25 23 21 23 28 39 43 42 42 38 35 31 27 24 20 16 11 6 6 8 13 20 25 28 32 36
20 21 22 23 25 26 28 28 29 30 31 32 30 30 30 31 30 28 27 27 28 27 26 26 31 39 46 44 43 38 35 31 28 22 22 11 10 9 6 12 14 21 23 30 33
24 26 28 29 30 31 32 33 34 35 36 36 36 36 36 35 35 34 31 29 30 31 32 29 31 33 44 47 45 41 40 36 30 26 27 16 10 11 9 9 10 18 19 24 30
27 28 30 32 35 36 36 38 38 39 38 38 39 40 38 34 33 35 35 35 34 33 33 34 35 35 37 48 50 49 43 34 37 34 28 18 15 11 9 7 7 12 14 18 26
31 32 34 36 38 39 40 41 41 41 41 40 39 37 36 36 36 37 38 37 36 37 36 39 39 40 41 41 51 51 53 47 46 39 33 28 19 11 8 6 6 4 9 15 19
33 35 38 40 42 43 44 43 40 38 40 40 38 36 36 35 35 35 34 35 36 38 39 42 44 43 39 40 44 56 56 54 52 44 39 29 25 16 12 9 7 7 8 11 13
37 39 41 41 41 38 36 36 36 34 33 34 35 35 34 32 30 28 27 28 32 36 40 43 46 42 44 43 44 50 59 58 55 50 44 40 36 30 20 17 10 7 7 10 8
41 39 41 41 39 36 35 33 32 31 32 33 33 30 25 22 21 19 20 21 25 28 33 39 44 48 48 48 47 48 57 60 60 56 51 48 39 36 29 25 21 11 5 3 9
40 42 39 39 39 36 35 33 31 29 27 26 22 16 14 15 18 23 25 26 28 30 30 32 39 46 52 53 51 52 53 61 63 60 59 48 43 35 33 26 25 21 24 8 9
43 41 40 38 34 32 27 24 22 22 20 14 11 13 17 22 25 28 30 32 35 35 35 37 40 42 49 56 55 53 55 60 65 64 61 50 45 40 35 34 27 24 28 10 17
42 40 38 34 28 23 20 18 17 15 12 11 14 17 22 27 31 35 38 40 40 39 39 40 44 48 49 53 60 59 60 59 66 67 64 56 48 46 43 39 34 26 24 17 19
38 36 35 28 24 17 17 17 15 12 12 16 19 23 27 31 34 36 36 34 32 33 36 40 42 49 54 56 58 64 65 63 64 70 68 66 59 57 43 43 38 35 30 23 24
36 33 31 24 21 15 17 18 16 16 18 21 24 26 31 32 35 29 26 28 28 32 32 37 41 45 57 61 62 64 67 67 65 73 72 68 64 56 47 46 43 40 39 31 24
34 30 26 22 19 16 19 20 20 22 24 26 28 29 32 34 33 32 33 34 32 31 31 32 37 41 51 66 67 67 69 72 70 67 73 69 67 59 57 54 50 44 38 39 41
31 28 25 20 18 18 20 23 24 25 26 28 32 35 36 36 35 34 33 33 31 30 29 29 32 37 45 59 74 74 72 74 73 70 74 74 71 63 59 56 52 52 45 45 43
24 17 12 13 14 16 21 25 28 31 34 38 41 43 42 39 39 38 37 33 29 28 28 29 30 29 39 50 65 78 79 77 73 77 73 80 78 73 61 66 59 54 53 53 50
17 13 14 14 18 21 26 31 36 39 42 45 46 46 45 44 42 39 37 32 29 30 29 32 38 28 33 44 59 75 84 78 81 78 74 83 84 78 70 65 69 66 60 54 47
20 18 17 20 26 29 34 39 43 44 48 49 48 41 41 40 39 38 34 31 32 30 32 37 38 25 26 35 49 71 84 84 80 83 79 85 88 81 75 68 71 73 67 63 53
22 23 21 23 26 36 33 32 37 40 42 45 44 42 39 39 35 33 31 31 32 30 34 40 34 19 16 26 40 59 79 92 87 82 83 83 92 88 82 78 73 75 72 70 57
26 24 24 26 31 34 32 35 36 36 34 32 32 33 34 34 32 30 26 28 29 33 39 37 27 22 17 29 34 51 77 88 90 84 86 86 94 88 86 91 75 78 81 77 73
29 27 25 29 30 28 30 29 33 34 31 29 32 33 30 27 21 19 21 25 31 36 44 27 22 21 17 20 31 48 67 85 92 89 86 90 90 96 91 89 88 75 73 78 73
31 30 28 28 30 27 28 28 29 33 31 27 30 24 20 12 14 18 21 27 36 42 39 22 19 22 15 17 25 39 57 76 92 94 88 88 87 95 92 91 91 85 74 78 80
Wind_Direction
206 223 238 224 233 242 233 246 241 234 234 238 240 247 255 256 252 247 240 237 230 232 229 227 218 217 230 230 224 246 258 270 274 317 74 46 14 9 17 19 15 23 20 22 21
254 270 268 239 248 252 262 259 246 256 249 254 247 245 247 252 260 264 254 242 235 229 231 229 224 218 223 230 231 229 241 244 254 262 99 8 14 8 25 21 15 19 24 21 21
270 302 270 250 246 253 256 262 274 280 279 277 277 274 270 258 244 251 261 258 243 232 228 228 225 221 220 223 227 228 229 237 252 239 212 160 12 352 13 16 17 15 24 20 21
280 279 256 246 250 260 265 265 264 270 276 277 277 277 275 273 269 266 259 251 251 243 229 227 225 222 219 222 218 215 220 225 224 236 242 305 35 356 347 15 15 19 16 21 24
267 263 251 251 256 262 261 262 262 265 268 271 275 277 279 275 270 265 263 258 245 243 244 229 224 223 220 220 215 210 216 218 221 232 235 234 244 353 323 16 8 18 14 24 24
260 256 254 254 257 260 263 262 263 265 270 270 274 279 279 276 272 268 263 258 254 244 238 244 226 223 220 220 217 209 211 219 223 222 240 240 235 282 316 351 358 19 17 25 28
267 266 264 264 264 264 265 268 270 271 272 274 278 281 281 278 271 264 264 261 253 248 239 238 240 227 220 218 217 212 205 214 221 211 229 229 228 267 287 335 357 13 16 25 30
271 272 273 274 273 270 270 271 273 274 277 276 277 279 280 277 270 262 261 258 256 246 241 236 235 236 223 216 214 210 208 207 215 208 221 222 223 234 264 328 9 1 21 25 27
274 277 279 278 277 277 276 276 277 277 277 278 278 278 278 273 267 261 264 263 255 246 240 236 235 232 230 217 213 208 208 204 210 208 218 210 218 221 258 284 336 353 10 27 28
278 281 283 282 281 280 279 279 278 278 276 277 279 278 275 276 268 266 265 260 255 249 240 234 235 233 229 222 214 212 210 204 207 207 212 215 224 214 237 261 302 341 360 10 27
286 286 286 286 286 286 285 282 281 282 275 274 277 278 279 276 271 268 263 256 251 246 241 235 233 234 232 228 220 214 212 211 210 207 210 199 230 233 213 231 249 292 290 341 6
287 288 287 288 290 291 291 286 281 281 278 277 279 279 277 273 268 266 259 253 248 244 243 238 235 233 230 227 227 218 214 211 212 203 207 196 198 222 215 223 245 235 277 301 329
292 291 291 292 293 291 291 288 282 280 279 278 278 278 271 263 262 262 261 253 250 249 244 239 236 233 231 225 223 224 216 214 212 206 204 207 201 205 206 225 226 255 200 274 289
296 297 296 298 296 291 290 286 283 279 273 272 272 265 271 276 276 274 273 271 265 261 253 244 238 234 228 226 222 221 220 215 211 209 205 205 203 215 206 215 222 221 239 246 253
298 300 301 301 297 294 290 282 278 272 264 256 256 270 279 278 277 277 277 277 275 269 262 252 242 234 231 227 220 219 217 218 211 209 208 196 194 206 204 208 214 206 224 234 231
301 302 304 303 301 295 285 286 282 257 244 258 266 271 277 282 285 285 284 281 277 273 267 257 242 236 229 227 224 216 215 215 214 210 210 196 187 202 203 208 208 220 209 231 228
303 305 305 306 298 287 273 282 271 266 270 277 283 287 286 287 289 290 288 285 279 273 268 260 247 234 228 224 223 218 213 211 212 211 208 210 198 200 202 203 209 217 216 240 225
305 307 304 301 291 269 261 276 275 271 278 283 287 290 292 295 296 293 294 289 289 287 275 272 257 236 225 220 220 219 212 211 211 212 206 207 203 194 199 210 216 210 219 224 212
306 303 298 294 286 268 265 277 279 282 288 291 295 296 295 298 297 291 292 289 290 289 279 282 273 251 230 218 217 217 213 209 210 212 207 205 197 195 198 210 213 219 216 226 221
304 301 294 281 281 273 274 278 281 285 289 292 298 302 301 298 308 300 297 290 287 288 287 292 284 255 239 224 214 213 213 209 207 210 207 203 198 194 205 200 210 210 217 220 222
297 300 300 286 284 284 285 284 288 288 287 287 291 297 299 298 304 301 298 290 288 289 294 303 306 268 241 231 220 210 210 208 205 207 206 202 198 198 198 206 205 211 211 216 221
273 275 292 294 292 292 285 282 284 287 286 287 289 293 296 293 298 295 299 292 290 295 299 309 312 290 253 233 217 211 206 206 206 204 206 201 201 198 199 207 205 212 214 214 209
262 261 281 290 289 292 289 288 290 291 290 289 290 290 292 286 290 297 295 287 289 298 306 311 308 289 263 234 215 206 206 205 204 205 202 203 202 199 200 201 207 212 217 219 210
261 259 273 286 293 302 299 301 302 300 294 289 291 289 285 286 293 294 288 285 291 300 311 310 299 273 269 237 212 207 200 206 205 205 202 203 203 209 202 201 206 210 215 216 210
258 259 272 280 290 300 306 311 312 310 306 299 294 289 290 292 291 287 287 288 299 309 314 305 283 260 227 232 211 206 201 204 206 204 203 204 205 207 209 207 199 211 215 216 217
260 260 267 282 295 299 308 317 322 323 317 302 296 295 299 288 274 281 286 299 309 310 314 299 265 250 244 227 215 210 205 201 205 204 205 207 205 208 211 206 208 199 210 215 217
263 255 266 284 293 295 303 313 327 335 332 315 316 304 292 283 284 289 300 308 313 314 309 289 253 238 234 233 211 208 207 201 205 205 205 209 209 212 210 214 207 208 206 210 214
Height
10941 10941 10942 10942 10943 10943 10943 10943 10943 10943 10944 10944 10945 10945 10946 10946 10947 10949 10953 10958 10961 10964 10968 10970 10973 10976 10978 10980 10982 10984 10986 10987 10987 10986 10984 10982 10982 10980 10975 10970 10967 10960 10952 10943 10936
10939 10940 10940 10940 10940 10941 10941 10941 10941 10941 10941 10941 10942 10943 10943 10944 10945 10945 10947 10951 10954 10958 10962 10964 10968 10971 10974 10977 10979 10982 10984 10985 10985 10986 10985 10984 10984 10983 10978 10973 10969 10962 10955 10948 10940
10937 10937 10937 10938 10938 10938 10938 10938 10939 10939 10938 10938 10939 10940 10940 10941 10942 10943 10943 10944 10946 10951 10955 10957 10961 10965 10970 10972 10976 10979 10981 10983 10985 10985 10985 10984 10984 10984 10981 10977 10971 10966 10959 10952 10945
10934 10935 10935 10935 10936 10935 10935 10936 10936 10936 10935 10935 10936 10937 10937 10938 10939 10939 10939 10940 10940 10943 10946 10949 10955 10960 10963 10967 10971 10975 10978 10980 10982 10983 10984 10984 10984 10985 10982 10980 10974 10970 10964 10957 10950
10932 10932 10931 10932 10932 10932 10932 10932 10932 10932 10931 10931 10931 10932 10932 10932 10933 10933 10934 10935 10936 10938 10939 10941 10947 10952 10956 10961 10966 10970 10974 10977 10979 10981 10983 10984 10984 10985 10983 10981 10977 10973 10968 10961 10954
10927 10927 10927 10927 10927 10927 10927 10926 10926 10925 10925 10925 10926 10926 10926 10926 10925 10927 10927 10928 10930 10932 10934 10934 10939 10943 10949 10954 10960 10964 10969 10973 10975 10978 10980 10982 10984 10983 10984 10983 10981 10976 10973 10966 10960
10924 10923 10922 10922 10922 10921 10920 10919 10919 10918 10918 10918 10918 10919 10918 10919 10918 10918 10919 10921 10923 10925 10927 10928 10931 10935 10941 10947 10954 10960 10964 10969 10971 10976 10979 10981 10983 10984 10984 10984 10983 10978 10976 10971 10965
10918 10917 10917 10916 10915 10914 10913 10912 10911 10911 10911 10910 10910 10909 10909 10909 10908 10910 10911 10913 10914 10916 10920 10922 10923 10926 10931 10939 10947 10955 10959 10963 10966 10970 10975 10980 10982 10982 10983 10984 10984 10981 10979 10976 10970
10913 10911 10910 10908 10906 10906 10905 10904 10903 10902 10901 10900 10900 10899 10899 10899 10899 10899 10901 10902 10904 10907 10911 10914 10915 10917 10922 10931 10938 10945 10952 10957 10961 10965 10971 10977 10980 10982 10983 10983 10984 10983 10982 10980 10975
10906 10905 10903 10901 10898 10897 10895 10894 10893 10892 10891 10889 10889 10889 10888 10888 10888 10889 10890 10891 10893 10896 10900 10904 10905 10908 10913 10921 10929 10936 10941 10945 10953 10959 10966 10972 10977 10979 10981 10983 10983 10985 10983 10983 10980
10898 10896 10893 10892 10889 10887 10884 10882 10881 10880 10878 10878 10878 10877 10877 10877 10877 10877 10878 10879 10882 10885 10887 10891 10895 10899 10909 10915 10919 10926 10931 10939 10945 10952 10958 10966 10974 10976 10978 10981 10982 10984 10984 10985 10984
10891 10887 10884 10882 10879 10876 10873 10871 10870 10868 10866 10866 10867 10866 10867 10867 10867 10867 10868 10869 10871 10873 10876 10880 10885 10893 10897 10905 10910 10915 10923 10930 10937 10945 10952 10958 10966 10972 10975 10978 10981 10983 10984 10985 10985
10882 10878 10875 10872 10868 10866 10864 10861 10859 10858 10857 10856 10856 10856 10857 10858 10859 10859 10860 10861 10862 10864 10866 10870 10875 10878 10884 10892 10899 10905 10912 10921 10928 10938 10945 10951 10958 10964 10969 10973 10977 10981 10983 10984 10986
10872 10869 10866 10862 10858 10856 10854 10851 10850 10849 10848 10848 10849 10849 10850 10852 10853 10852 10852 10853 10853 10854 10857 10861 10862 10866 10871 10877 10887 10893 10902 10910 10921 10929 10935 10945 10951 10958 10963 10967 10972 10977 10981 10984 10984
10864 10860 10856 10852 10848 10846 10843 10842 10841 10841 10841 10842 10843 10844 10845 10845 10845 10845 10844 10844 10843 10843 10844 10848 10851 10855 10859 10864 10874 10884 10890 10898 10908 10919 10929 10937 10944 10952 10957 10964 10967 10971 10976 10981 10982
10854 10851 10847 10843 10840 10838 10836 10836 10835 10835 10836 10837 10839 10839 10838 10837 10836 10834 10833 10832 10831 10829 10830 10833 10835 10839 10845 10852 10858 10870 10877 10885 10898 10909 10918 10926 10934 10942 10949 10956 10961 10966 10971 10975 10980
10846 10842 10838 10835 10833 10832 10831 10831 10832 10832 10833 10833 10833 10832 10831 10829 10827 10824 10821 10818 10817 10815 10814 10815 10817 10823 10829 10836 10843 10850 10861 10873 10883 10893 10904 10915 10924 10930 10941 10948 10954 10961 10965 10971 10976
10838 10835 10831 10829 10827 10827 10827 10828 10828 10829 10828 10828 10826 10825 10823 10821 10818 10815 10812 10809 10807 10803 10801 10799 10800 10803 10807 10818 10826 10836 10850 10861 10870 10878 10892 10905 10915 10924 10933 10940 10947 10953 10960 10967 10972
10831 10827 10824 10822 10821 10822 10823 10823 10824 10823 10822 10821 10819 10818 10815 10812 10808 10804 10802 10799 10796 10793 10790 10786 10784 10785 10790 10799 10810 10820 10833 10845 10857 10871 10885 10898 10906 10917 10923 10931 10938 10946 10953 10958 10965
10824 10820 10817 10816 10815 10816 10817 10817 10817 10817 10815 10812 10811 10808 10805 10801 10797 10793 10790 10788 10786 10782 10779 10775 10769 10769 10772 10779 10788 10801 10816 10832 10846 10857 10870 10885 10895 10905 10913 10920 10929 10938 10945 10951 10958
10817 10815 10812 10811 10811 10812 10812 10811 10809 10808 10807 10804 10801 10798 10795 10790 10787 10782 10778 10776 10774 10772 10769 10764 10758 10754 10755 10759 10769 10782 10798 10815 10835 10842 10856 10869 10883 10893 10899 10910 10920 10928 10936 10943 10950
10811 10810 10809 10807 10807 10806 10805 10804 10801 10799 10796 10792 10789 10786 10783 10779 10776 10771 10767 10765 10764 10761 10757 10753 10747 10743 10740 10742 10751 10767 10785 10802 10814 10830 10843 10858 10869 10878 10890 10897 10908 10918 10926 10933 10942
10804 10805 10804 10802 10800 10799 10797 10795 10791 10788 10783 10779 10777 10775 10771 10767 10764 10761 10757 10754 10753 10751 10746 10741 10736 10733 10731 10732 10738 10751 10770 10787 10801 10808 10828 10841 10856 10866 10878 10886 10896 10906 10916 10924 10931
10797 10798 10798 10797 10793 10790 10788 10785 10782 10777 10772 10766 10764 10763 10759 10756 10754 10750 10747 10745 10743 10740 10736 10729 10724 10725 10729 10724 10728 10738 10754 10763 10784 10799 10815 10827 10841 10852 10864 10872 10884 10896 10905 10913 10920
10790 10790 10791 10790 10788 10782 10779 10776 10772 10766 10761 10756 10752 10750 10749 10746 10743 10740 10738 10735 10733 10728 10724 10718 10713 10711 10715 10714 10717 10726 10734 10750 10772 10786 10800 10811 10823 10836 10845 10854 10869 10885 10892 10900 10909
10782 10783 10783 10782 10780 10775 10772 10769 10764 10758 10753 10749 10744 10741 10739 10735 10733 10732 10731 10727 10722 10717 10711 10706 10704 10704 10705 10707 10711 10717 10730 10741 10757 10772 10784 10794 10810 10818 10833 10846 10855 10869 10879 10888 10896
10772 10774 10775 10774 10771 10769 10766 10763 10758 10752 10746 10741 10737 10732 10730 10729 10728 10726 10724 10719 10713 10705 10698 10696 10696 10697 10701 10703 10707 10716 10724 10730 10743 10758 10772 10784 10793 10804 10820 10829 10842 10853 10861 10871 10884